Location: Nebula Knoll Observatory
(43.6666°N, 71.0000°W)
Time: 09:39:00
(UTC-04:00)

Cosmos 1782 - Visible Passes

Search period start: 01 September 2014 00:00
Search period end: 11 September 2014 00:00
Orbit: 549 x 565 km, 82.5° (Epoch: 31 August)

Date Brightness Start Highest point End Pass type
(mag) Time Alt. Az. Time Alt. Az. Time Alt. Az.
01 Sep 4.3 04:00:55 15° SSE 04:03:54 36° E 04:07:41 10° NNE visible
02 Sep 4.0 03:59:36 22° SSE 04:01:52 42° E 04:05:45 10° NNE visible
02 Sep 4.6 05:36:05 10° WSW 05:38:40 16° WNW 05:41:16 10° NNW visible
03 Sep 3.7 03:58:14 31° SSE 03:59:51 49° E 04:03:49 10° NNE visible
03 Sep 4.7 05:34:32 10° WSW 05:36:44 14° WNW 05:38:57 10° NW visible
04 Sep 3.3 03:56:49 44° SSE 03:57:49 58° E 04:01:52 10° NNE visible
04 Sep 4.9 05:33:06 10° W 05:34:48 12° WNW 05:36:31 10° NW visible
05 Sep 3.0 03:55:21 62° SE 03:55:48 68° E 03:59:53 10° NNE visible
05 Sep 5.0 05:31:58 10° W 05:32:52 11° WNW 05:33:46 10° NW visible
06 Sep 2.9 03:53:51 79° ENE 03:53:51 79° ENE 03:57:53 10° N visible
07 Sep 3.1 03:52:18 66° N 03:52:18 66° N 03:55:52 10° N visible
08 Sep 3.5 03:50:43 50° N 03:50:43 50° N 03:53:50 10° N visible
09 Sep 3.9 03:49:05 38° NNW 03:49:05 38° NNW 03:51:47 10° N visible
10 Sep 4.3 03:47:26 30° NNW 03:47:26 30° NNW 03:49:43 10° N visible
